OPS 4682 DEB, 18691

Orbit data source: Space-Track

OPS 4682 DEB, 18691 is space debris in LEO originally from a launch on Sat, 03 Apr 1965 UTC launched from the Air Force Western Test Range (AFWTR). Debris objects in space refer to the collection of defunct objects orbiting the Earth. Examples of debris include non-operational satellites, rocket bodies, and fragments generated from explosions, collisions, or faulty payload assembly.

Loading next visibility...
Identifier
18691, 1965-027AJ
Orbit
LEO
Country
Flag of USUS
Related business
Manufacturer
Unknown
Mission
Spacecraft
Bus & Motor
Unknown
Mass
Unknown
Launch date (UTC)
1965-04-03 (61 years ago)
Launch vehicle
Unknown
Launch site
Air Force Western Test Range (AFWTR)
Object type
Payload
Rocket body
Debris
Shape & HBR
Unknown shape, 0.1 m
Radar Cross Section
Medium (>0.1 m² and <1 m²)

Expand to show TLE details & history
Last TLE update: 10 hours ago

TLE from 10 hours ago
0 OPS 4682 DEB
1 18691U 65027AJ  26150.52636571 -.00000152  00000-0 -55492-3 0  9992
2 18691  90.2238 356.3994 0026307 148.7968 242.1321 12.96756033822808
Epoch: 2026-05-30T12:37Z
TLE epoch observation values (Epoch: 2026-05-30T12:37:57.997Z)
Latitude
30.71124°
Longitude
-81.26566°
Altitude
1,288.156 km
Speed
7.21 km/s
True Right ascension
23h 45m 04s
True Declination
30° 34' 15"
Sunlit
Object was in daylight at epoch
Visualization orbit readout
Latitude
Unknown
Longitude
Unknown
Altitude
Unknown
Speed
Unknown
Apparent Right ascension
Unknown
Apparent Declination
Unknown
Sunlit
N/A
Visualization observer readout
Local Sidereal Time
08:24:25
Azimuth
Unknown
Elevation
Unknown
Doppler factor
Unknown
Orbital elements
Apogee altitude
1,292.08 km
Perigee altitude
1,251.83 km
Semi-major axis
7,650.092 km
Eccentricity
0.00263
Inclination
90.2238°
RAAN
356.3994°
Arg. of periapsis
148.7968°
True anomaly
241.86601°
Mean anomaly
242.1321°
Eccentric anomaly
241.99902°
Mean motion
3.24372 °/min
Orbital period
110.98 mins
BSTAR
-0.00055492
Loading maneuver chart data...
Computing Atmospheric mass density...
Loading historical data...
Loading historical data...
Loading historical data...
Loading historical data...
Loading historical data...
Loading historical data...
Loading historical data...

Documentation

Showing up to 5 results
|